This demonstration page uses our WeatherBlox Daily Observations layout. Learn more.

Left ArrowRight Arrow

Hourly Observations for November 1, 2016

Temp ( °F °C ) Dew Point ( °F °C ) Humidity (%) Winds ( mph kmh ) Pressure ( in mb ) Visibility ( mi km ) Precip ( " mm )
12:15 am 00:15 Clear 56 13.5 32 -0.2 39 39 NW 9 15 29.77 1008 10 16 0.00 0.00
12:35 am 00:35 Clear 56 13.3 29 -1.5 36 36 NNW 9 15 29.77 1008 10 16 0.00 0.00
12:55 am 00:55 Clear 55 13 28 -2 36 36 NNW 10 17 29.77 1008 10 16 0.00 0.00
1:15 am 01:15 Clear 55 12.6 28 -2.3 36 36 NW 9 15 29.77 1008 10 16 0.00 0.00
1:35 am 01:35 Clear 53 11.8 27 -2.6 37 37 NNW 8 13 29.80 1009 10 16 0.00 0.00
1:55 am 01:55 Clear 54 12 27 -3 35 35 NNW 12 19 29.80 1009 10 16 0.00 0.00
2:15 am 02:15 Clear 53 11.7 26 -3.1 36 36 NNW 8 13 29.80 1009 10 16 0.00 0.00
2:35 am 02:35 Clear 52 11.2 26 -3.1 37 37 NW 7 11 29.80 1009 10 16 0.00 0.00
2:55 am 02:55 Clear 51 10.3 27 -2.9 40 40 NW 6 9 29.83 1010 10 16 0.00 0.00
3:15 am 03:15 Clear 48 9 28 -2.3 45 45 NNW 7 11 29.83 1010 10 16 0.00 0.00
3:35 am 03:35 Clear 49 9.5 28 -2.5 43 43 NNW 6 9 29.85 1011 10 16 0.00 0.00
3:55 am 03:55 Clear 49 9.3 28 -2.3 44 44 NW 7 11 29.83 1010 10 16 0.00 0.00
4:15 am 04:15 Clear 47 8.3 28 -2.1 48 48 NNW 8 13 29.83 1010 10 16 0.00 0.00
4:35 am 04:35 Clear 48 8.9 28 -2 47 47 NNW 10 17 29.83 1010 10 16 0.00 0.00
4:55 am 04:55 Clear 49 9.2 28 -2 46 46 NNW 10 17 29.83 1010 10 16 0.00 0.00
5:15 am 05:15 Clear 47 8.6 29 -1.9 48 48 NNW 10 17 29.83 1010 10 16 0.00 0.00
5:35 am 05:35 Clear 48 9 28 -2 46 46 NNW 9 15 29.85 1011 10 16 0.00 0.00
5:55 am 05:55 Clear 47 8.6 28 -2 48 48 NNW 7 11 29.85 1011 10 16 0.00 0.00
6:15 am 06:15 Clear 46 7.9 28 -2 50 50 N 6 9 29.91 1013 10 16 0.00 0.00
6:35 am 06:35 Clear 43 6.2 28 -2 56 56 N 6 9 29.91 1013 10 16 0.00 0.00
6:55 am 06:55 Clear 45 7.1 29 -1.8 54 54 N 6 9 29.91 1013 10 16 0.00 0.00
7:15 am 07:15 Clear 43 6.2 29 -1.8 57 57 NNW 6 9 29.91 1013 10 16 0.00 0.00
7:35 am 07:35 Clear 42 5.5 28 -2 59 59 NNW 3 6 29.91 1013 10 16 0.00 0.00
7:55 am 07:55 Clear 41 4.9 28 -2 61 61 NW 7 11 29.97 1015 10 16 0.00 0.00
8:15 am 08:15 Sunny 40 4.7 28 -2.1 62 62 NW 6 9 29.97 1015 10 16 0.00 0.00
8:35 am 08:35 Sunny 40 4.3 28 -2 64 64 NNW 7 11 29.97 1015 10 16 0.00 0.00
8:55 am 08:55 Sunny 41 5.1 28 -2 60 60 NNW 7 11 30.00 1016 10 16 0.00 0.00
9:15 am 09:15 Sunny 43 6.2 29 -1.5 58 58 NW 6 9 29.97 1015 10 16 0.00 0.00
9:35 am 09:35 Sunny 46 7.5 30 -1.2 54 54 NW 5 7 29.97 1015 10 16 0.00 0.00
9:55 am 09:55 Sunny 48 9.1 32 -0.2 53 53 NNW 3 6 29.94 1014 10 16 0.00 0.00
10:15 am 10:15 Sunny 51 10.7 32 0 48 48 N 3 6 29.94 1014 10 16 0.00 0.00
10:35 am 10:35 Sunny 54 12.1 32 0 44 44 N 5 7 29.91 1013 10 16 0.00 0.00
10:55 am 10:55 Sunny 55 12.8 33 0.3 43 43 NNE 7 11 29.91 1013 10 16 0.00 0.00
11:15 am 11:15 Sunny 57 14.1 33 0.6 40 40 NE 8 13 29.91 1013 10 16 0.00 0.00
11:35 am 11:35 Sunny 58 14.6 33 0.5 38 38 NE 9 15 29.91 1013 10 16 0.00 0.00
11:55 am 11:55 Sunny 60 15.5 33 0.5 36 36 ENE 8 13 29.88 1012 10 16 0.00 0.00
12:15 pm 12:15 Sunny 60 15.8 34 1 37 37 E 12 19 29.88 1012 10 16 0.00 0.00
12:35 pm 12:35 Sunny 61 16.3 34 1.3 36 36 NE 9 15 29.88 1012 10 16 0.00 0.00
12:55 pm 12:55 Sunny 62 16.7 35 1.6 36 36 ENE 9 15 29.88 1012 10 16 0.00 0.00
1:15 pm 13:15 Sunny 66 18.8 35 1.9 32 32 E 14 22 29.88 1012 10 16 0.00 0.00
1:35 pm 13:35 Sunny 66 19.1 34 1 30 30 ENE 15 24 29.83 1010 10 16 0.00 0.00
1:55 pm 13:55 Sunny 66 18.9 34 1.1 30 30 E 14 22 29.83 1010 10 16 0.00 0.00
2:15 pm 14:15 Sunny 68 20.2 34 1 28 28 ENE 13 20 29.83 1010 10 16 0.00 0.00
2:35 pm 14:35 Sunny 69 20.7 33 0.4 26 26 ENE 14 22 29.83 1010 10 16 0.00 0.00
2:55 pm 14:55 Sunny 70 21.2 32 0 24 24 ENE 14 22 29.83 1010 10 16 0.00 0.00
3:15 pm 15:15 Sunny 69 20.7 32 0.1 25 25 ENE 14 22 29.80 1009 10 16 0.00 0.00
3:35 pm 15:35 Sunny 69 20.8 32 0 25 25 NE 12 19 29.83 1010 10 16 0.00 0.00
3:55 pm 15:55 Sunny 70 21.1 32 0 25 25 ENE 17 28 29.80 1009 10 16 0.00 0.00
4:15 pm 16:15 Sunny 69 20.7 32 0 25 25 ENE 14 22 29.83 1010 10 16 0.00 0.00
4:35 pm 16:35 Sunny 69 20.6 31 -0.3 25 25 ENE 13 20 29.83 1010 10 16 0.00 0.00
4:55 pm 16:55 Sunny 69 20.4 31 -0.3 25 25 E 13 20 29.83 1010 10 16 0.00 0.00
5:15 pm 17:15 Sunny 68 20 32 0 26 26 E 10 17 29.83 1010 10 16 0.00 0.00
5:35 pm 17:35 Sunny 67 19.5 32 0 27 27 ENE 10 17 29.83 1010 10 16 0.00 0.00
5:55 pm 17:55 Sunny 66 18.9 32 -0.1 28 28 ENE 9 15 29.83 1010 10 16 0.00 0.00
6:15 pm 18:15 Sunny 63 17.3 32 0 31 31 NNE 6 9 29.85 1011 10 16 0.00 0.00
6:35 pm 18:35 Clear 59 15.2 35 1.7 40 40 NNE 8 13 29.91 1013 10 16 0.00 0.00
6:55 pm 18:55 Clear 64 17.9 43 5.9 46 46 N 5 7 29.65 1004 10 16 0.00 0.00
7:15 pm 19:15 Clear 56 13.5 35 1.6 45 45 NNE 7 11 29.91 1013 10 16 0.00 0.00
7:35 pm 19:35 Clear 56 13.6 36 2.3 47 47 NNE 10 17 29.91 1013 10 16 0.00 0.00
7:55 pm 19:55 Clear 57 13.8 36 2.1 45 45 NNE 8 13 29.91 1013 10 16 0.00 0.00
8:15 pm 20:15 Clear 56 13.6 36 2.2 46 46 NE 9 15 29.91 1013 10 16 0.00 0.00
8:35 pm 20:35 Clear 55 13 36 2 47 47 NE 10 17 29.91 1013 10 16 0.00 0.00
8:55 pm 20:55 Clear 56 13.6 35 1.6 44 44 NE 9 15 29.94 1014 10 16 0.00 0.00
9:15 pm 21:15 Clear 55 12.6 35 1.6 47 47 NE 8 13 29.94 1014 10 16 0.00 0.00
9:35 pm 21:35 Clear 55 12.8 35 1.5 46 46 NE 8 13 29.94 1014 10 16 0.00 0.00
9:55 pm 21:55 Clear 55 12.5 35 1.5 47 47 NE 8 13 29.94 1014 10 16 0.00 0.00
10:15 pm 22:15 Clear 54 12 35 1.5 49 49 NNE 9 15 29.97 1015 10 16 0.00 0.00
10:35 pm 22:35 Clear 52 11.3 35 1.7 52 52 NNE 8 13 29.97 1015 10 16 0.00 0.00
10:55 pm 22:55 Clear 52 11 35 1.4 52 52 NNE 8 13 29.97 1015 10 16 0.00 0.00
11:15 pm 23:15 Clear 51 10.8 35 1.4 53 53 N 7 11 29.97 1015 10 16 0.00 0.00
11:35 pm 23:35 Clear 50 10.1 35 1.5 55 55 NNE 6 9 29.97 1015 10 16 0.00 0.00
11:55 pm 23:55 Clear 49 9.4 35 1.4 58 58 NNE 6 9 29.97 1015 10 16 0.00 0.00

Powered by AerisWeather